When you browse on this site, cookies collect data to enhance your experience and personalize the content and advertising you see.
Visit our Privacy Policy to learn more. By continuing to use the site, you agree to this use of cookies and data.
  • In Romania
  • List of Countries
  • For 7 days
  • Water Temperature
  • Weather Map
  • Weather Widgets
  • user-avatar
    Login

    Hourly Weather Sosnowiec

    Today, 21 August, Wednesday

    Time Temperature Precipitation Wind Pressure Humidity
    00:00 +20°C° 0.2 mm 2 mps 739 mmHg 90%
    01:00 +21°C° 0 mm 1 mps 739 mmHg 92%
    02:00 +20°C° 0.1 mm 2 mps 739 mmHg 93%
    03:00 +20°C° 0.1 mm 3 mps 739 mmHg 93%
    04:00 +20°C° 0.1 mm 3 mps 739 mmHg 94%
    05:00 +19°C° 0.1 mm 4 mps 740 mmHg 93%
    06:00 +18°C° 0.1 mm 4 mps 741 mmHg 92%
    07:00 +18°C° 0.1 mm 4 mps 741 mmHg 91%
    08:00 +18°C° 0 mm 4 mps 742 mmHg 88%
    09:00 +18°C° 0 mm 4 mps 743 mmHg 85%
    10:00 +18°C° 0 mm 4 mps 743 mmHg 81%
    11:00 +19°C° 0 mm 4 mps 744 mmHg 77%
    12:00 +19°C° 0 mm 4 mps 744 mmHg 72%
    13:00 +20°C° 0 mm 4 mps 745 mmHg 67%
    14:00 +19°C° 0 mm 4 mps 745 mmHg 68%
    15:00 +19°C° 0 mm 3 mps 745 mmHg 69%
    16:00 +19°C° 0 mm 3 mps 745 mmHg 70%
    17:00 +18°C° 0 mm 2 mps 745 mmHg 73%
    18:00 +18°C° 0 mm 2 mps 745 mmHg 76%
    19:00 +18°C° 0 mm 1 mps 745 mmHg 79%
    20:00 +17°C° 0 mm 2 mps 745 mmHg 81%
    21:00 +16°C° 0 mm 2 mps 745 mmHg 83%
    22:00 +16°C° 0 mm 2 mps 745 mmHg 85%
    23:00 +15°C° 0 mm 2 mps 746 mmHg 86%

    Tomorrow, 22 August, Thursday

    Time Temperature Precipitation Wind Pressure Humidity
    00:00 +15°C° 0 mm 2 mps 746 mmHg 87%
    01:00 +15°C° 0 mm 2 mps 746 mmHg 88%
    02:00 +14°C° 0 mm 2 mps 746 mmHg 89%
    03:00 +14°C° 0 mm 2 mps 745 mmHg 90%
    04:00 +14°C° 0 mm 2 mps 745 mmHg 91%
    05:00 +15°C° 0 mm 2 mps 745 mmHg 87%
    06:00 +16°C° 0 mm 3 mps 746 mmHg 83%
    07:00 +16°C° 0 mm 3 mps 746 mmHg 80%
    08:00 +18°C° 0 mm 4 mps 746 mmHg 73%
    09:00 +19°C° 0 mm 4 mps 746 mmHg 66%
    10:00 +20°C° 0 mm 5 mps 746 mmHg 59%
    11:00 +21°C° 0 mm 5 mps 746 mmHg 58%
    12:00 +21°C° 0 mm 5 mps 745 mmHg 58%
    13:00 +22°C° 0 mm 5 mps 745 mmHg 58%
    14:00 +22°C° 0 mm 5 mps 745 mmHg 60%
    15:00 +21°C° 0 mm 5 mps 745 mmHg 61%
    16:00 +21°C° 0 mm 4 mps 745 mmHg 62%
    17:00 +20°C° 0 mm 4 mps 744 mmHg 66%
    18:00 +19°C° 0 mm 4 mps 744 mmHg 70%
    19:00 +19°C° 0 mm 3 mps 744 mmHg 74%
    20:00 +18°C° 0 mm 3 mps 744 mmHg 76%
    21:00 +17°C° 0 mm 3 mps 745 mmHg 78%
    22:00 +17°C° 0 mm 3 mps 745 mmHg 80%
    23:00 +17°C° 0 mm 3 mps 745 mmHg 81%

    Day after tomorrow, 23 August, Friday

    Time Temperature Precipitation Wind Pressure Humidity
    00:00 +16°C° 0 mm 3 mps 745 mmHg 82%
    01:00 +16°C° 0 mm 3 mps 745 mmHg 83%
    02:00 +16°C° 0 mm 3 mps 744 mmHg 84%
    03:00 +14°C° 0 mm 3 mps 744 mmHg 86%
    04:00 +14°C° 0 mm 3 mps 744 mmHg 87%
    05:00 +16°C° 0 mm 3 mps 744 mmHg 84%
    06:00 +17°C° 0 mm 4 mps 744 mmHg 82%
    07:00 +18°C° 0 mm 4 mps 744 mmHg 79%
    08:00 +19°C° 0 mm 4 mps 744 mmHg 73%
    09:00 +21°C° 0 mm 5 mps 744 mmHg 68%
    10:00 +22°C° 0 mm 5 mps 744 mmHg 62%
    11:00 +23°C° 0 mm 5 mps 744 mmHg 61%
    12:00 +25°C° 0 mm 5 mps 744 mmHg 59%
    13:00 +26°C° 0 mm 5 mps 744 mmHg 58%
    14:00 +26°C° 0 mm 5 mps 744 mmHg 59%
    15:00 +26°C° 0 mm 5 mps 743 mmHg 60%
    16:00 +26°C° 0 mm 5 mps 743 mmHg 61%
    17:00 +23°C° 0 mm 5 mps 743 mmHg 65%
    18:00 +22°C° 0 mm 5 mps 743 mmHg 69%
    19:00 +21°C° 0 mm 4 mps 743 mmHg 74%
    20:00 +20°C° 0 mm 4 mps 743 mmHg 74%
    21:00 +20°C° 0 mm 4 mps 743 mmHg 74%
    22:00 +19°C° 0 mm 5 mps 743 mmHg 75%
    23:00 +19°C° 0 mm 4 mps 743 mmHg 77%

    24 August, Saturday

    Time Temperature Precipitation Wind Pressure Humidity
    00:00 +18°C° 0 mm 4 mps 743 mmHg 79%
    01:00 +18°C° 0 mm 4 mps 742 mmHg 82%
    02:00 +17°C° 0 mm 4 mps 742 mmHg 83%
    03:00 +17°C° 0 mm 4 mps 742 mmHg 84%
    04:00 +17°C° 0 mm 4 mps 742 mmHg 85%
    05:00 +17°C° 0 mm 4 mps 742 mmHg 82%
    06:00 +18°C° 0 mm 4 mps 742 mmHg 79%
    07:00 +18°C° 0 mm 4 mps 742 mmHg 76%
    08:00 +20°C° 0 mm 4 mps 742 mmHg 72%
    09:00 +22°C° 0 mm 4 mps 742 mmHg 68%
    10:00 +23°C° 0 mm 4 mps 742 mmHg 64%
    11:00 +25°C° 0 mm 4 mps 742 mmHg 62%
    12:00 +26°C° 0 mm 4 mps 742 mmHg 61%
    13:00 +27°C° 0 mm 4 mps 741 mmHg 59%
    14:00 +27°C° 0 mm 4 mps 741 mmHg 60%
    15:00 +27°C° 0 mm 4 mps 741 mmHg 60%
    16:00 +27°C° 0 mm 4 mps 741 mmHg 60%
    17:00 +26°C° 0 mm 3 mps 741 mmHg 66%
    18:00 +24°C° 0 mm 3 mps 740 mmHg 73%
    19:00 +22°C° 0 mm 3 mps 740 mmHg 79%
    20:00 +21°C° 0 mm 3 mps 741 mmHg 81%
    21:00 +21°C° 0 mm 3 mps 741 mmHg 84%
    22:00 +20°C° 0 mm 3 mps 741 mmHg 86%
    23:00 +20°C° 0 mm 3 mps 741 mmHg 88%

    25 August, Sunday

    Time Temperature Precipitation Wind Pressure Humidity
    00:00 +20°C° 0 mm 3 mps 741 mmHg 90%
    01:00 +19°C° 0 mm 3 mps 740 mmHg 91%
    02:00 +19°C° 0 mm 3 mps 740 mmHg 92%
    03:00 +18°C° 0 mm 3 mps 740 mmHg 92%
    04:00 +18°C° 0 mm 3 mps 740 mmHg 93%
    05:00 +19°C° 0 mm 3 mps 740 mmHg 89%
    06:00 +19°C° 0 mm 3 mps 740 mmHg 86%
    07:00 +20°C° 0 mm 3 mps 740 mmHg 83%
    08:00 +22°C° 0 mm 3 mps 740 mmHg 76%
    09:00 +23°C° 0 mm 4 mps 740 mmHg 70%
    10:00 +26°C° 0 mm 4 mps 741 mmHg 64%
    11:00 +27°C° 0 mm 4 mps 740 mmHg 61%
    12:00 +28°C° 0 mm 4 mps 740 mmHg 58%
    13:00 +29°C° 0 mm 4 mps 740 mmHg 56%
    14:00 +29°C° 0 mm 4 mps 740 mmHg 56%
    15:00 +29°C° 0 mm 4 mps 740 mmHg 57%
    16:00 +29°C° 0 mm 4 mps 740 mmHg 57%
    17:00 +27°C° 0 mm 3 mps 740 mmHg 64%
    18:00 +26°C° 0 mm 3 mps 740 mmHg 70%
    19:00 +24°C° 0 mm 3 mps 740 mmHg 77%
    20:00 +24°C° 0 mm 3 mps 740 mmHg 80%
    21:00 +22°C° 0 mm 3 mps 740 mmHg 82%
    22:00 +22°C° 0 mm 4 mps 740 mmHg 85%
    23:00 +21°C° 0 mm 3 mps 740 mmHg 86%

    26 August, Monday

    Time Temperature Precipitation Wind Pressure Humidity
    00:00 +21°C° 0 mm 3 mps 740 mmHg 88%
    01:00 +20°C° 0 mm 3 mps 740 mmHg 90%
    02:00 +20°C° 0 mm 3 mps 739 mmHg 91%
    03:00 +19°C° 0 mm 3 mps 739 mmHg 92%
    04:00 +19°C° 0 mm 2 mps 739 mmHg 92%
    05:00 +20°C° 0 mm 2 mps 739 mmHg 89%
    06:00 +21°C° 0 mm 2 mps 739 mmHg 85%
    07:00 +21°C° 0 mm 2 mps 739 mmHg 81%
    08:00 +25°C° 0 mm 2 mps 739 mmHg 72%
    09:00 +27°C° 0 mm 2 mps 739 mmHg 63%
    10:00 +29°C° 0 mm 1 mps 739 mmHg 54%
    11:00 +30°C° 0 mm 1 mps 739 mmHg 50%
    12:00 +31°C° 0 mm 1 mps 739 mmHg 45%
    13:00 +33°C° 0 mm 1 mps 739 mmHg 41%
    14:00 +32°C° 0 mm 1 mps 739 mmHg 41%
    15:00 +32°C° 0 mm 1 mps 738 mmHg 41%
    16:00 +32°C° 0 mm 1 mps 738 mmHg 41%
    17:00 +30°C° 0.6 mm 1 mps 738 mmHg 49%
    18:00 +27°C° 0.6 mm 1 mps 738 mmHg 56%
    19:00 +25°C° 0.6 mm 2 mps 738 mmHg 64%
    20:00 +25°C° 0.6 mm 2 mps 738 mmHg 64%
    21:00 +24°C° 0.6 mm 2 mps 738 mmHg 64%
    22:00 +24°C° 0.6 mm 2 mps 738 mmHg 64%
    23:00 +24°C° 0.6 mm 2 mps 738 mmHg 67%
    Show more